Simultaneous Nadir Overpasses (SNOs) Predictions

Prediction of SNOs between GOES-15 and TERRA Satellite Orbit:

Table of predicted SNOs for the next 14.0 days since TLE Epoch: 4/6/2018
Index Date Time (GOES-15) GOES-15 Lat,Lon TERRA Lat,Lon Distance(km) Time Diff (sec)
1 04/07/2018 07:34:52 0.07,-135.03 -0.24,-136.35 151.58 80
2 04/09/2018 07:25:24 0.07,-135.09 0.43,-133.42 190.58 80
3 04/09/2018 19:44:00 -0.08,-135.11 0.68,-138.57 394.77 80
4 04/11/2018 19:31:52 -0.08,-135.17 0.01,-135.64 53.24 80
5 04/13/2018 19:22:23 -0.08,-135.22 -0.60,-132.69 287.82 80
6 04/14/2018 07:41:08 0.08,-135.24 -0.50,-137.88 301.21 80
7 04/16/2018 07:31:40 0.08,-135.29 0.17,-134.95 39.05 80
8 04/18/2018 07:19:31 0.09,-135.33 0.77,-132.00 378.33 80
9 04/18/2018 19:38:08 -0.09,-135.34 0.29,-137.16 207.73 80
10 04/20/2018 19:28:40 -0.10,-135.37 -0.36,-134.22 130.26 80




NCC Satellite Simultaneous Nadir Overpasses (SNOs) Prediction Service
